FW3054 Weather Reports


time (UTC)temp
F
wind
direction
speed
knots
gust
knots
rain 1hr
in
rain 24hr
in
rain mn
in
humidity
%
barometer
mb
20260902222516 89 0.0 1.7 0.00 0.00 0.00 53 1020.6
20260902221516 89 23 0.9 2.6 0.00 0.00 0.00 51 1020.7
20260902220537 90 23 0.9 2.6 0.00 0.00 0.00 52 1020.7
20260902215516 90 23 1.7 3.5 0.00 0.00 0.00 48 1020.8
20260902214516 91 0.0 1.7 0.00 0.00 0.00 49 1020.8
20260902213516 91 23 0.9 3.5 0.00 0.00 0.00 46 1020.7
20260902212516 92 0.0 0.9 0.00 0.00 0.00 51 1020.9
20260902211516 93 0.0 0.9 0.00 0.00 0.00 48 1021.0
20260902210516 93 23 0.9 1.7 0.00 0.00 0.00 44 1021.0
20260902205516 94 0.0 1.7 0.00 0.00 0.00 42 1021.2
20260902204516 95 45 0.9 1.7 0.00 0.00 0.00 40 1021.1
20260902203536 95 0.0 0.9 0.00 0.00 0.00 38 1021.2
20260902202516 95 23 0.9 3.5 0.00 0.00 0.00 40 1021.1
20260902201516 96 0 0.9 3.5 0.00 0.00 0.00 39 1021.5
20260902200516 95 0.0 1.7 0.00 0.00 0.00 41 1021.4
20260902195516 96 23 0.9 1.7 0.00 0.00 0.00 38 1021.6
20260902194516 95 0.0 1.7 0.00 0.00 0.00 42 1021.8
20260902193516 94 23 0.9 2.6 0.00 0.00 0.00 41 1021.7
20260902192516 94 23 0.9 2.6 0.00 0.00 0.00 40 1021.9
20260902191516 95 0.0 0.9 0.00 0.00 0.00 42 1022.0
20260902190516 94 23 1.7 3.5 0.00 0.00 0.00 39 1022.1
20260902185516 94 0.0 0.9 0.00 0.00 0.00 44 1022.4
20260902184516 94 0 1.7 3.5 0.00 0.00 0.00 43 1022.4
20260902183516 93 0.0 0.9 0.00 0.00 0.00 50 1022.6
20260902182516 92 23 0.9 1.7 0.00 0.00 0.00 45 1022.6
20260902181516 92 23 0.9 1.7 0.00 0.00 0.00 44 1022.7
20260902180536 92 23 0.9 2.6 0.00 0.00 0.00 45 1022.7
20260902175516 91 23 0.9 1.7 0.00 0.00 0.00 48 1022.8
20260902174536 91 23 0.9 1.7 0.00 0.00 0.00 46 1022.9
20260902173516 91 23 0.9 2.6 0.00 0.00 0.00 47 1023.0
20260902172516 91 23 0.9 2.6 0.00 0.00 0.00 48 1023.2
20260902171516 90 23 0.9 2.6 0.00 0.00 0.00 50 1023.3
20260902170516 89 0.0 1.7 0.00 0.00 0.00 54 1023.4
20260902165516 89 23 0.9 2.6 0.00 0.00 0.00 54 1023.4
20260902164516 88 0.0 0.9 0.00 0.00 0.00 61 1023.6
20260902163516 87 0.0 1.7 0.00 0.00 0.00 63 1023.7
20260902162516 86 0.0 0.9 0.00 0.00 0.00 65 1023.9
20260902161516 85 23 0.9 1.7 0.00 0.00 0.00 66 1023.9
20260902160516 84 0.0 0.0 0.00 0.00 0.00 72 1024.0
20260902155516 83 0.0 0.0 0.00 0.00 0.00 75 1024.2
20260902154515 82 0.0 0.9 0.00 0.00 0.00 73 1024.0
20260902153516 82 0.0 0.0 0.00 0.00 0.00 79 1024.1
20260902152515 81 0.0 0.0 0.00 0.00 0.00 75 1024.0
20260902151516 80 0.0 0.0 0.00 0.00 0.00 76 1023.8
20260902150516 79 0.0 0.0 0.00 0.00 0.00 78 1023.7
20260902145515 78 0.0 0.0 0.00 0.00 0.00 79 1023.6
20260902144516 77 0.0 0.0 0.00 0.00 0.00 83 1023.6
20260902143515 76 0.0 0.0 0.00 0.00 0.00 83 1023.6
20260902142516 75 0.0 0.0 0.00 0.00 0.00 85 1023.5
20260902141516 74 0.0 0.0 0.00 0.00 0.00 87 1023.5
20260902140515 73 0.0 0.0 0.00 0.00 0.00 88 1023.5
20260902135535 72 0.0 0.0 0.00 0.00 0.00 89 1023.5
20260902134516 72 0.0 0.0 0.00 0.00 0.00 89 1023.4
20260902133515 71 0.0 0.0 0.00 0.00 0.00 90 1023.4
20260902132516 70 0.0 0.0 0.00 0.00 0.00 90 1023.6
20260902131516 70 0.0 0.0 0.00 0.00 0.00 89 1023.8
20260902130536 69 0.0 0.0 0.00 0.00 0.00 89 1023.6
20260902125516 69 0.0 0.0 0.00 0.00 0.00 88 1023.4
20260902124516 68 0.0 0.0 0.00 0.00 0.00 86 1023.5
20260902123535 68 0.0 0.0 0.00 0.00 0.00 85 1023.5
20260902122515 67 0.0 0.0 0.00 0.00 0.00 84 1023.6
20260902121515 67 0.0 0.0 0.00 0.00 0.00 84 1023.5
20260902120616 67 0.0 0.0 0.00 0.00 0.00 84 1023.4
20260902115515 66 0.0 0.0 0.00 0.00 0.00 85 1023.4
20260902114535 66 0.0 0.0 0.00 0.00 0.00 87 1023.3
20260902113535 66 0.0 0.0 0.00 0.00 0.00 88 1023.3
20260902112516 66 0.0 0.0 0.00 0.00 0.00 88 1023.3
20260902111556 66 0.0 0.0 0.00 0.00 0.00 88 1023.1
20260902110515 66 0.0 0.0 0.00 0.00 0.00 88 1023.2
20260902105515 66 0.0 0.0 0.00 0.00 0.00 89 1023.3
20260902104535 66 0.0 0.0 0.00 0.00 0.00 89 1023.4
20260902103515 67 0.0 0.0 0.00 0.00 0.00 89 1023.2
20260902102517 67 0.0 0.0 0.00 0.00 0.00 89 1023.2
20260902101515 67 0.0 0.0 0.00 0.00 0.00 89 1023.3
20260902100517 67 0.0 0.0 0.00 0.00 0.00 89 1023.2
20260902095517 67 0.0 0.0 0.00 0.00 0.00 89 1023.0
20260902094517 68 0.0 0.0 0.00 0.00 0.00 90 1023.0
20260902093517 68 0.0 0.0 0.00 0.00 0.00 90 1023.0
20260902092517 68 0.0 0.0 0.00 0.00 0.00 90 1022.8
20260902091517 68 0.0 0.0 0.00 0.00 0.00 90 1022.9
20260902090537 68 0.0 0.0 0.00 0.00 0.00 90 1022.8
20260902085517 68 0.0 0.0 0.00 0.00 0.00 90 1022.8
20260902084517 68 0.0 0.0 0.00 0.00 0.00 89 1022.8
20260902083517 68 0.0 0.0 0.00 0.00 0.00 90 1022.8
20260902082537 68 0.0 0.0 0.00 0.00 0.00 90 1022.9
20260902081517 68 0.0 0.0 0.00 0.00 0.00 90 1022.8
20260902080517 68 0.0 0.0 0.00 0.00 0.00 90 1022.8
20260902075517 68 0.0 0.0 0.00 0.00 0.00 90 1022.8
20260902074517 69 0.0 0.0 0.00 0.00 0.00 90 1022.8
20260902073539 69 0.0 0.0 0.00 0.00 0.00 90 1023.0
20260902072517 69 0.0 0.0 0.00 0.00 0.00 90 1022.9
20260902071517 69 0.0 0.0 0.00 0.00 0.00 90 1023.0
20260902070517 69 0.0 0.0 0.00 0.00 0.00 90 1023.0
20260902065517 69 0.0 0.0 0.00 0.00 0.00 90 1023.0
20260902064517 69 0.0 0.0 0.00 0.00 0.00 89 1022.9
20260902063517 70 0.0 0.0 0.00 0.00 0.00 89 1022.9
20260902062517 70 0.0 0.0 0.00 0.00 0.00 89 1023.0
20260902061517 70 0.0 0.0 0.00 0.00 0.00 89 1023.0
20260902060517 70 0.0 0.0 0.00 0.00 0.00 89 1023.2
20260902055637 70 0.0 0.0 0.00 0.00 0.00 89 1023.2
20260902054517 70 0.0 0.0 0.00 0.00 0.00 89 1023.3
20260902053517 71 0.0 0.0 0.00 0.00 0.00 89 1023.2
20260902052516 71 0.0 0.0 0.00 0.00 0.00 89 1023.1
20260902051516 71 0.0 0.0 0.00 0.00 0.00 89 1023.0
20260902050517 71 0.0 0.0 0.00 0.00 0.00 89 1023.0
20260902045517 71 0.0 0.0 0.00 0.00 0.00 88 1023.0
20260902044517 71 0.0 0.0 0.00 0.00 0.00 88 1022.7
20260902043537 72 0.0 0.0 0.00 0.00 0.00 87 1022.8
20260902042517 72 0.0 0.0 0.00 0.00 0.00 87 1022.8
20260902041516 72 0.0 0.0 0.00 0.00 0.00 87 1022.6
20260902040537 72 0.0 0.0 0.00 0.00 0.00 87 1022.4
20260902035516 72 0.0 0.0 0.00 0.00 0.00 87 1022.4
20260902034517 72 0.0 0.0 0.00 0.00 0.00 87 1022.1
20260902033517 73 0.0 0.0 0.00 0.00 0.00 86 1022.1
20260902032517 73 0.0 0.0 0.00 0.00 0.00 86 1022.1
20260902031517 73 0.0 0.0 0.00 0.00 0.00 86 1022.0
20260902030517 73 0.0 0.0 0.00 0.00 0.00 86 1022.0
20260902025516 73 0.0 0.0 0.00 0.00 0.00 85 1022.1
20260902024537 74 0.0 0.0 0.00 0.00 0.00 85 1022.0
20260902023517 74 0.0 0.9 0.00 0.00 0.00 85 1022.0
20260902022517 74 0.0 0.0 0.00 0.00 0.00 84 1022.0
20260902021516 75 0.0 0.0 0.00 0.00 0.00 84 1021.5
20260902020516 75 0.0 0.0 0.00 0.00 0.00 83 1021.6
20260902015517 75 0.0 0.0 0.00 0.00 0.00 83 1021.7
20260902014516 76 0.0 0.0 0.00 0.00 0.00 82 1021.4
20260902013517 76 0.0 0.0 0.00 0.00 0.00 81 1021.5
20260902012517 76 0.0 0.0 0.00 0.00 0.00 80 1021.4
20260902011517 77 0.0 0.0 0.00 0.00 0.00 79 1021.2
20260902010516 78 0.0 0.9 0.00 0.00 0.00 78 1021.1
20260902005516 78 0.0 0.0 0.00 0.00 0.00 77 1021.1
20260902004516 78 0.0 0.0 0.00 0.00 0.00 76 1020.9
20260902003517 78 0.0 0.0 0.00 0.00 0.00 75 1020.9
20260902002516 79 0.0 0.0 0.00 0.00 0.00 76 1020.9
20260902001536 79 0.0 0.0 0.00 0.00 0.00 76 1021.0
20260902000516 80 0.0 0.0 0.00 0.00 0.00 74 1020.9
20260901235516 80 0.0 0.9 0.00 0.00 0.00 73 1020.9
20260901234536 81 0.0 0.0 0.00 0.00 0.00 72 1020.9
20260901233516 82 0.0 0.0 0.00 0.00 0.00 70 1020.9
20260901232519 82 0.0 0.9 0.00 0.00 0.00 69 1021.2
20260901231516 83 0.0 0.0 0.00 0.00 0.00 67 1021.2
20260901230536 84 0.0 0.0 0.00 0.00 0.00 66 1021.4
20260901225516 85 0.0 0.0 0.00 0.00 0.00 64 1021.3
20260901224516 85 0.0 0.0 0.00 0.00 0.00 64 1021.4
20260901223516 86 0 0.9 2.6 0.00 0.00 0.00 59 1021.5